Cecil Field, FL

3:51 AM EDT on May 21, 2018 (GMT -0400)
Cecil

Weather History for KVQQ - January, 2013

Change the Weather History Date:

Friday, January 11, 2013

  Actual Average (KNIP) Record (KNIP)
Temperature  
Mean Temperature 66 °F -  
Max Temperature 80 °F 63 °F 73 °F (2018)
Min Temperature 53 °F 44 °F 39 °F (2016)
Cooling Degree Days 2    
Growing Degree Days 16 (Base 50)    
Moisture  
Dew Point 60 °F    
Average Humidity 93    
Maximum Humidity 100    
Minimum Humidity 48    
Precipitation  
Precipitation 0.00 in - - ()
Sea Level Pressure  
Sea Level Pressure 30.24 in    
Wind  
Wind Speed 1 mph (SSW)    
Max Wind Speed 9 mph    
Max Gust Speed -    
Visibility 4 miles    
Events Fog    
Averages and records for this station are not official NWS values.
T = Trace of Precipitation, MM = Missing Value Source: NWS Daily Summary

Daily Weather History Graph

Daily Weather History Graph

Search for Another Location

Airport or City:

Astronomy

Jan. 11, 2013 Rise Set
Actual Time 7:24 AM EST 5:46 PM EST
Civil Twilight 6:58 AM EST 6:12 PM EST
Nautical Twilight 6:29 AM EST 6:42 PM EST
Astronomical Twilight 6:00 AM EST 7:11 PM EST
Moon 6:59 AM EST (1/11) 5:58 PM EST (1/11)
Length of Visible Light 11h 13m
Length of Day
10h 21m
Waning Crescent, 0% of the Moon is Illuminated
Jan 11
Waning Crescent
Jan 11
New
Jan 18
First Quarter
Jan 26
Full
Feb 3
Last Quarter

Hourly Weather History & Observations

Time (EST) Temp. Heat Index Dew Point Humidity Pressure Visibility Wind Dir Wind Speed Gust Speed Precip Events Conditions
12:35 AM 62.6 °F - 62.6 °F 100% 30.29 in 0.5 mi Calm Calm - N/A Fog Fog
12:55 AM 60.8 °F - 60.8 °F 100% 30.28 in 0.2 mi Calm Calm - N/A Fog Fog
1:15 AM 59.0 °F - 59.0 °F 100% 30.28 in 0.2 mi Calm Calm - N/A Fog Fog
1:35 AM 59.0 °F - 59.0 °F 100% 30.28 in 1.5 mi Calm Calm - N/A   Mostly Cloudy
1:55 AM 59.0 °F - 59.0 °F 100% 30.28 in 2.5 mi Calm Calm - N/A   Overcast
2:15 AM 59.0 °F - 59.0 °F 100% 30.28 in 2.5 mi Calm Calm - N/A   Overcast
2:35 AM 59.0 °F - 59.0 °F 100% 30.27 in 2.0 mi Calm Calm - N/A   Mostly Cloudy
2:55 AM 59.0 °F - 59.0 °F 100% 30.27 in 1.0 mi Calm Calm - N/A   Mostly Cloudy
3:15 AM 59.0 °F - 59.0 °F 100% 30.27 in 0.2 mi Calm Calm - N/A Fog Fog
3:35 AM 57.2 °F - 57.2 °F 100% 30.26 in 0.8 mi Calm Calm - N/A   Mist
3:55 AM 57.2 °F - 57.2 °F 100% 30.25 in 0.5 mi Calm Calm - N/A Fog Fog
4:15 AM 59.0 °F - 59.0 °F 100% 30.24 in 3.0 mi Calm Calm - N/A   Clear
4:35 AM 60.8 °F - 60.8 °F 100% 30.23 in 5.0 mi Calm Calm - N/A   Clear
4:55 AM 60.8 °F - 60.8 °F 100% 30.23 in 4.0 mi Calm Calm - N/A   Clear
5:15 AM 59.0 °F - 59.0 °F 100% 30.23 in 0.2 mi Calm Calm - N/A Fog Fog
5:35 AM 59.0 °F - 59.0 °F 100% 30.24 in 0.2 mi Calm Calm - N/A Fog Fog
5:55 AM 57.2 °F - 57.2 °F 100% 30.24 in 0.2 mi Calm Calm - N/A Fog Fog
6:15 AM 57.2 °F - 57.2 °F 100% 30.24 in 0.2 mi Calm Calm - N/A Fog Fog
6:35 AM 55.4 °F - 55.4 °F 100% 30.25 in 0.2 mi Calm Calm - N/A Fog Fog
6:50 AM 55.4 °F - 55.4 °F 100% 30.25 in 0.2 mi Calm Calm - N/A Fog Fog
7:50 AM 53.6 °F - 53.6 °F 100% 30.25 in 0.5 mi Calm Calm - N/A Fog Fog
8:18 AM 55.4 °F - 55.4 °F 100% 30.26 in 7.0 mi Calm Calm - N/A   Clear
8:50 AM 59.0 °F - 59.0 °F 100% 30.26 in 7.0 mi Calm Calm - N/A   Clear
9:50 AM 64.4 °F - 64.4 °F 100% 30.26 in 10.0 mi SSE 6.9 mph - N/A   Clear
10:50 AM 73.4 °F - 66.2 °F 78% 30.26 in 10.0 mi SSW 5.8 mph - N/A   Clear
11:50 AM 77.0 °F - 64.4 °F 65% 30.24 in 6.0 mi SSW 5.8 mph - N/A   Haze
12:50 PM 78.8 °F - 60.8 °F 54% 30.21 in 10.0 mi SSW 9.2 mph - N/A   Clear
1:50 PM 80.6 °F 81.1 °F 59.0 °F 48% 30.19 in 10.0 mi South 5.8 mph - N/A   Scattered Clouds
3:50 PM 80.6 °F 81.1 °F 59.0 °F 48% 30.18 in 10.0 mi SSW 6.9 mph - N/A   Partly Cloudy
4:50 PM 78.8 °F - 59.0 °F 51% 30.18 in 10.0 mi SSW 5.8 mph - N/A   Partly Cloudy
8:15 PM 66.2 °F - 64.4 °F 94% 30.19 in 10.0 mi Calm Calm - N/A   Clear
8:55 PM 66.2 °F - 64.4 °F 94% 30.20 in 10.0 mi Calm Calm - N/A   Clear
9:15 PM 62.6 °F - 62.6 °F 100% 30.20 in 10.0 mi Calm Calm - N/A   Clear
9:35 PM 62.6 °F - 62.6 °F 100% 30.20 in 5.0 mi Calm Calm - N/A   Clear
9:55 PM 59.0 °F - 59.0 °F 100% 30.21 in 3.0 mi Calm Calm - N/A   Clear
10:15 PM 60.8 °F - 60.8 °F 100% 30.21 in 3.0 mi Calm Calm - N/A   Clear
10:35 PM 59.0 °F - 59.0 °F 100% 30.21 in 6.0 mi Calm Calm - N/A   Partly Cloudy
10:55 PM 62.6 °F - 62.6 °F 100% 30.21 in 9.0 mi Calm Calm - N/A   Clear
11:15 PM 60.8 °F - 60.8 °F 100% 30.21 in 7.0 mi Calm Calm - N/A   Clear
11:35 PM 60.8 °F - 60.8 °F 100% 30.21 in 1.5 mi Calm Calm - N/A   Clear
11:55 PM 59.0 °F - 59.0 °F 100% 30.21 in 1.8 mi Calm Calm - N/A   Scattered Clouds